HULIANWANG DIGUI-72

导读

“HULIANWANG DIGUI-72”是中国于2025年8月17日成功发射的低轨卫星,是中国低轨互联网星座组网建设中的重要组成部分,承担着全球互联网覆盖与通信服务试验任务,该卫星入轨后运行状态稳定,将进一步完善星座网络布局,提升全球宽带通信服务能力,为天地一体化网络建设奠定坚实基础,推动卫星互联网产业发展。

Basic Information
目录编号:
65232
目录名称:
HULIANWANG DIGUI-72
国际标识:
2025-178E
轨道中心:
EARTH
卫星名称:
HULIANWANG DIGUI-72
卫星全名:
HULIANWANG DIGUI-72
卫星状态:
在轨 (已飞行302 天)
发射日期:
2025-08-17 UTC
国别 :
中国 (CN)
星等 :
--
Orbit Information
数据来源 国际轨道数据 AOE轨道数据
星历时间 2026-06-15T04:00:42+0800
8小时前
查看轨道信息
2026-06-15T07:00:00+0800
5小时前
查看轨道信息
半长轴 7546.06km 7546.057km
偏心率 0.0001893 0.0001916
轨道倾角 86.498° 86.499°
近地点辐角 91.903° 97.143°
升交点赤经 14.296° 14.255°
平近点角 268.233° 136.309°
近地点 1166.494km 1166.474km
远地点 1169.352km 1169.366km
周期 108.728分钟 108.728分钟
每日圈数 13.244099 13.244108
Detailed Information
使用方式:
暂无
2D Orbit Map
3D Orbit Map
Orbit Altitude Analysis Chart
Orbit Inclination Analysis Chart
Orbit Comprehensive Analysis Chart
View Comprehensive Chart